Regional Weather Roundup
Issued by NWS Tiyan, Guam

Home | Current Version | Previous Version | Text Only | Print | Product List | Glossary On
Versions: 1 2 3 4 5 6 7 8 9 10 11 12 13 14 15 16 17 18 19 20 21 22 23 24 25 26 27
000
ASGM40 PGUM 230712
RWRGUM
WEATHER ROUNDUP FOR THE MARIANAS
NATIONAL WEATHER SERVICE TIYAN GU
500 PM GSST WED APR 23 2014

GUZ001>004-230800-
MARIANA ISLANDS-

CITY           SKY/WX    TMP DP  RH WIND       PRES   REMARKS
GUAM AIRPORT   MOSUNNY   84  70  61 E12G22    29.84S
ANDERSEN AFB   MOSUNNY   82  72  69 NE14      29.85S
ROTA AIRPORT   MOSUNNY   82  72  69 E16       29.85S
TINIAN AP      MOSUNNY   82  70  65 NE15      29.83F
SAIPAN AP      MOSUNNY   84  72  65 E18       29.84F

$$




USA.gov is the U.S. government's official web portal to all federal, state and local government web resources and services.